TimePST,TemperatureF,Dew PointF,Humidity,Sea Level PressureIn,VisibilityMPH,Wind Direction,Wind SpeedMPH,Gust SpeedMPH,PrecipitationIn,Events,Conditions,WindDirDegrees,DateUTC
12:58 AM,31.8,31.5,99,30.10,10.0,SSE,3.5,-,N/A,,Mostly Cloudy,150,2012-11-27 08:58:00
1:53 AM,32.0,32.0,100,30.07,2.5,SE,3.5,-,N/A,,Scattered Clouds,130,2012-11-27 09:53:00
1:58 AM,31.3,31.1,99,30.09,3.0,SE,3.5,-,N/A,,Partly Cloudy,140,2012-11-27 09:58:00
2:58 AM,30.2,30.0,99,30.11,8.0,South,2.3,-,N/A,,Mostly Cloudy,190,2012-11-27 10:58:00
3:58 AM,29.8,29.7,99,30.09,10.0,South,2.3,-,N/A,,Mostly Cloudy,190,2012-11-27 11:58:00
4:58 AM,30.2,30.0,99,30.09,7.0,NNW,1.2,-,N/A,,Partly Cloudy,330,2012-11-27 12:58:00
5:58 AM,28.6,28.4,99,30.08,10.0,SSE,2.3,-,N/A,,Partly Cloudy,160,2012-11-27 13:58:00
6:58 AM,28.4,28.4,100,30.08,1.5,South,2.3,-,N/A,,Clear,190,2012-11-27 14:58:00
7:08 AM,28.4,28.4,100,30.06,1.8,South,2.3,-,N/A,,Partly Cloudy,190,2012-11-27 15:08:00
7:13 AM,28.4,28.4,100,30.06,0.8,South,3.5,-,N/A,,Partly Cloudy,180,2012-11-27 15:13:00
7:18 AM,28.4,28.4,100,30.06,0.5,South,3.5,-,N/A,Fog,Light Freezing Fog,180,2012-11-27 15:18:00
7:23 AM,28.4,26.6,93,30.06,0.2,South,3.5,-,N/A,Fog,Light Freezing Fog,180,2012-11-27 15:23:00
7:28 AM,28.4,26.6,93,30.06,0.5,SSE,1.2,-,N/A,Fog,Light Freezing Fog,150,2012-11-27 15:28:00
7:33 AM,28.4,28.4,100,30.06,2.0,Calm,Calm,-,N/A,,Clear,0,2012-11-27 15:33:00
7:38 AM,28.4,28.4,100,30.05,7.0,Calm,Calm,-,N/A,,Clear,50,2012-11-27 15:38:00
7:58 AM,29.5,29.1,99,30.08,10.0,Calm,Calm,-,N/A,,Clear,0,2012-11-27 15:58:00
8:58 AM,30.9,30.7,99,30.09,10.0,SSW,2.3,-,N/A,,Clear,200,2012-11-27 16:58:00
9:13 AM,32.0,32.0,100,30.07,10.0,Calm,Calm,-,N/A,,Partly Cloudy,0,2012-11-27 17:13:00
9:23 AM,32.0,32.0,100,30.07,10.0,Calm,Calm,-,N/A,,Mostly Cloudy,40,2012-11-27 17:23:00
9:48 AM,33.8,32.0,93,30.07,2.5,South,2.3,-,N/A,,Overcast,170,2012-11-27 17:48:00
9:53 AM,33.8,33.8,100,30.07,1.0,SSE,2.3,-,N/A,,Mist,160,2012-11-27 17:53:00
9:58 AM,34.3,34.0,99,30.09,0.5,SSW,2.3,-,N/A,Fog,Fog,200,2012-11-27 17:58:00
10:03 AM,35.6,33.8,93,30.07,0.5,SSE,1.2,-,N/A,Fog,Fog,160,2012-11-27 18:03:00
10:13 AM,35.6,35.6,100,30.07,0.2,SSE,2.3,-,N/A,Fog,Fog,160,2012-11-27 18:13:00
10:18 AM,35.6,35.6,100,30.06,0.2,Calm,Calm,-,N/A,Fog,Fog,30,2012-11-27 18:18:00
10:23 AM,35.6,35.6,100,30.06,0.2,Calm,Calm,-,N/A,Fog,Fog,80,2012-11-27 18:23:00
10:28 AM,35.6,35.6,100,30.06,0.2,Calm,Calm,-,N/A,Fog,Fog,0,2012-11-27 18:28:00
10:58 AM,37.0,36.7,99,30.08,0.2,South,3.5,-,N/A,Fog,Fog,190,2012-11-27 18:58:00
11:03 AM,37.4,37.4,100,30.06,0.2,South,2.3,-,N/A,Fog,Fog,190,2012-11-27 19:03:00
11:08 AM,37.4,37.4,100,30.06,0.2,SSW,2.3,-,N/A,Fog,Fog,210,2012-11-27 19:08:00
11:18 AM,37.4,37.4,100,30.05,0.5,Calm,Calm,-,N/A,Fog,Fog,0,2012-11-27 19:18:00
11:23 AM,37.4,37.4,100,30.05,0.5,SE,1.2,-,N/A,Fog,Fog,140,2012-11-27 19:23:00
11:33 AM,37.4,37.4,100,30.04,0.8,SSE,1.2,-,N/A,,Mist,150,2012-11-27 19:33:00
11:38 AM,37.4,37.4,100,30.04,1.2,Calm,Calm,-,N/A,,Overcast,0,2012-11-27 19:38:00
11:43 AM,39.2,37.4,93,30.04,1.8,Calm,Calm,-,N/A,,Overcast,0,2012-11-27 19:43:00
11:48 AM,39.2,39.2,100,30.03,3.0,Calm,Calm,-,N/A,,Overcast,20,2012-11-27 19:48:00
11:53 AM,39.2,39.2,100,30.03,6.0,WSW,1.2,-,N/A,,Overcast,250,2012-11-27 19:53:00
11:58 AM,39.4,39.0,99,30.05,8.0,Calm,Calm,-,N/A,,Overcast,0,2012-11-27 19:58:00
12:18 PM,41.0,41.0,100,30.03,10.0,WSW,2.3,-,N/A,,Scattered Clouds,240,2012-11-27 20:18:00
12:58 PM,42.8,42.6,99,30.03,10.0,Variable,2.3,-,N/A,,Partly Cloudy,0,2012-11-27 20:58:00
1:58 PM,45.5,37.8,74,30.01,10.0,Calm,Calm,-,N/A,,Clear,20,2012-11-27 21:58:00
2:58 PM,46.4,38.3,73,30.00,10.0,South,1.2,-,N/A,,Mostly Cloudy,170,2012-11-27 22:58:00
3:58 PM,46.0,39.6,78,30.00,10.0,SW,2.3,-,N/A,,Mostly Cloudy,230,2012-11-27 23:58:00
4:58 PM,42.8,39.0,86,29.99,10.0,South,2.3,-,N/A,,Overcast,180,2012-11-28 00:58:00
5:58 PM,40.6,39.9,97,29.98,10.0,South,2.3,-,N/A,,Scattered Clouds,190,2012-11-28 01:58:00
6:58 PM,38.3,37.9,99,29.97,10.0,Calm,Calm,-,N/A,,Clear,0,2012-11-28 02:58:00
7:23 PM,39.2,39.2,100,29.94,6.0,SSW,2.3,-,N/A,,Clear,200,2012-11-28 03:23:00
7:28 PM,39.2,39.2,100,29.94,4.0,Calm,Calm,-,N/A,,Clear,90,2012-11-28 03:28:00
7:33 PM,39.2,39.2,100,29.94,5.0,Calm,Calm,-,N/A,,Clear,0,2012-11-28 03:33:00
7:38 PM,37.4,37.4,100,29.94,9.0,Calm,Calm,-,N/A,,Clear,0,2012-11-28 03:38:00
7:58 PM,36.9,36.7,99,29.95,9.0,Calm,Calm,-,N/A,,Partly Cloudy,0,2012-11-28 03:58:00
8:23 PM,37.4,37.4,100,29.92,2.0,SSW,2.3,-,N/A,,Partly Cloudy,200,2012-11-28 04:23:00
8:28 PM,37.4,37.4,100,29.92,1.2,South,2.3,-,N/A,,Partly Cloudy,190,2012-11-28 04:28:00
8:33 PM,37.4,37.4,100,29.91,1.5,South,2.3,-,N/A,,Clear,190,2012-11-28 04:33:00
8:38 PM,37.4,35.6,93,29.91,4.0,South,2.3,-,N/A,,Clear,190,2012-11-28 04:38:00
8:58 PM,35.8,35.6,99,29.93,2.5,SSW,2.3,-,N/A,,Clear,210,2012-11-28 04:58:00
9:03 PM,35.6,35.6,100,29.91,1.8,SW,2.3,-,N/A,,Clear,220,2012-11-28 05:03:00
9:13 PM,35.6,35.6,100,29.91,3.0,South,3.5,-,N/A,,Clear,190,2012-11-28 05:13:00
9:48 PM,35.6,33.8,93,29.91,2.5,South,4.6,-,N/A,,Clear,180,2012-11-28 05:48:00
9:53 PM,35.6,33.8,93,29.91,2.0,South,3.5,-,N/A,,Clear,170,2012-11-28 05:53:00
9:58 PM,34.9,34.5,99,29.92,4.0,Calm,Calm,-,N/A,,Clear,80,2012-11-28 05:58:00
10:28 PM,35.6,35.6,100,29.90,2.0,South,3.5,-,N/A,,Clear,180,2012-11-28 06:28:00
10:33 PM,35.6,35.6,100,29.90,2.0,South,3.5,-,N/A,,Clear,180,2012-11-28 06:33:00
10:38 PM,35.6,35.6,100,29.90,4.0,South,2.3,-,N/A,,Clear,170,2012-11-28 06:38:00
10:58 PM,35.2,34.9,99,29.91,6.0,South,2.3,-,N/A,,Clear,190,2012-11-28 06:58:00
11:58 PM,34.7,34.5,99,29.91,10.0,SE,1.2,-,N/A,,Clear,140,2012-11-28 07:58:00